[[{"header":{"parameterUnit":"m.s-1","parameterCategory":1,"la1":30.2991,"la2":30.254,"lo1":-89.0895,"lo2":-89.0444,"dy":0.0017,"dx":0.0017,"nx":28,"ny":28,"refTime":"2023-10-16T09:00:00:Z","depth":0,"parameterNumber":2,"parameterNumberName":"U-component_of_WINDS"},"data":[0,0,0,0,0,0,0,0,0,0,0,0,0,0,0,0,0,0,0,0,0,0,0,0,0,0,0,0,0,0,0,0,0,0,0,0,0,0,0,0,0,0,0,0,0,0,0,0,0,0,0,0,0,0,0,0,0,0,1.6606,1.6606,0,1.6586,1.6585,1.6585,1.6585,1.6585,1.6586,1.6586,1.6563,1.6562,1.6561,0,0,0,0,0,0,0,0,0,0,0,0,0,1.6643,1.6643,1.6606,1.6606,1.6606,1.6586,1.6585,1.6585,1.6585,1.6585,1.6586,1.6586,1.6563,1.6562,1.6561,0,0,0,0,0,0,0,0,0,0,0,0,0,1.6625,1.6642,1.6606,1.6603,1.6603,1.6586,1.6585,1.6585,1.6585,1.6585,1.6586,1.6586,1.6563,1.6562,1.6561,1.6545,0,0,1.6557,1.6556,0,0,0,0,0,0,0,0,1.6626,1.6624,1.6604,1.6603,1.6603,1.6588,1.659,1.6571,1.6585,1.6592,1.6586,1.6586,1.6571,1.6569,1.6564,1.6544,1.6543,1.6557,1.6556,1.6555,1.6555,0,0,0,0,0,0,0,1.6628,1.6625,1.6598,1.6604,1.6603,1.6602,1.66,1.6587,1.6579,1.6591,1.6591,1.6589,1.657,1.6565,1.6563,1.6542,1.6557,1.6555,1.6555,1.6554,1.6508,1.6507,0,0,0,0,0,0,1.663,1.6626,1.6599,1.6597,1.6616,1.6601,1.6599,1.6593,1.6579,1.6578,1.6588,1.6589,1.6567,1.6565,1.6563,1.6543,1.6555,1.6554,1.6553,1.6508,1.6507,1.6507,0,0,0,0,0,0,1.6631,1.6627,1.6599,1.6612,1.6608,1.66,1.6593,1.6592,1.6587,1.6577,1.6576,1.6585,1.6568,1.6564,1.6549,1.6542,1.6553,1.6552,1.6509,1.6508,1.6507,1.6503,0,0,0,0,0,0,1.6632,1.6628,1.6622,1.6612,1.6607,1.6587,1.6593,1.6591,1.6585,1.6585,1.6573,1.6572,1.6568,1.6551,1.6548,1.654,1.6551,1.6509,1.6508,1.6507,1.6503,1.6502,1.6501,0,0,0,0,0,1.6633,1.6621,1.6621,1.6618,1.66,1.6586,1.6584,1.658,1.6584,1.6578,1.6572,1.6572,1.6544,1.655,1.6546,1.6538,1.651,1.6509,1.6508,1.6504,1.6502,1.6501,0,0,0,0,0,0,1.6629,1.6619,1.662,1.6604,1.6596,1.6586,1.6578,1.6578,1.6569,1.6569,1.6564,1.6562,1.6546,1.6541,1.6548,1.6522,1.6527,1.6525,1.6526,1.6524,1.6522,1.6523,1.655,0,0,0,0,0,1.6627,1.6617,1.6609,1.6596,1.6592,1.6586,1.658,1.6578,1.6569,1.6565,1.6558,1.6549,1.6538,1.6531,1.652,1.6503,1.65,1.6496,1.6494,1.6493,1.6491,1.6481,1.6479,1.6504,1.6504,1.6504,0,0,1.6621,1.6615,1.6609,1.6595,1.6589,1.6578,1.6583,1.6572,1.6564,1.6563,1.6549,1.6543,1.6533,1.6517,1.6509,1.6511,1.6484,1.6492,1.6491,1.649,1.648,1.6478,1.6476,1.6503,1.6503,1.6503,0,0,1.6606,1.66,1.6589,1.6582,1.6573,1.6569,1.6567,1.6557,1.6553,1.6539,1.6538,1.6529,1.651,1.6502,1.6496,1.6479,1.6478,1.6476,1.6468,1.6458,1.6456,1.6454,1.6447,1.6445,1.6474,1.6474,1.6474,0,1.66,1.6584,1.6582,1.6571,1.6565,1.6566,1.6553,1.6547,1.6534,1.653,1.6533,1.651,1.6503,1.6485,1.6481,1.6476,1.6472,1.6476,1.6457,1.6455,1.6453,1.6446,1.6444,1.6474,1.6474,1.6474,1.6474,0,1.6577,1.6567,1.6558,1.6547,1.654,1.6528,1.6524,1.6517,1.6516,1.6512,1.6497,1.6489,1.6476,1.6472,1.6471,1.6454,1.6456,1.6458,1.6463,1.6451,1.6444,1.6442,1.6473,1.6473,1.6473,1.6474,0,0,1.6557,1.6546,1.6542,1.6537,1.6527,1.6519,1.6507,1.6496,1.649,1.6482,1.6471,1.6456,1.6458,1.6451,1.6449,1.6441,1.6427,1.6444,1.6444,1.644,1.6407,1.6404,1.6401,1.6427,1.6427,1.6426,1.6407,0,1.6539,1.6519,1.6517,1.6499,1.6489,1.649,1.648,1.6473,1.6469,1.6459,1.6455,1.6444,1.6448,1.6444,1.6436,1.643,1.642,1.6432,1.6416,1.6416,1.6417,1.6398,1.6395,1.6377,1.6405,1.6405,1.6404,0,1.6515,1.6507,1.6488,1.648,1.6476,1.6467,1.6456,1.6448,1.6439,1.6437,1.643,1.6429,1.6417,1.6424,1.6406,1.6414,1.6408,1.6404,1.6404,1.6401,1.6408,1.6393,1.6371,1.6368,1.64,1.6401,1.6401,0,1.6501,1.6485,1.6472,1.6467,1.6458,1.6451,1.6447,1.6439,1.6433,1.6424,1.642,1.6409,1.6403,1.6395,1.6391,1.6397,1.6374,1.638,1.637,1.637,1.6364,1.6364,1.634,1.6363,1.6363,1.6363,1.6363,0,1.6481,1.6468,1.6465,1.6457,1.6443,1.6442,1.6428,1.6424,1.6417,1.6408,1.6408,1.6399,1.6396,1.6386,1.6383,1.6368,1.6366,1.6363,1.6362,1.6362,1.6362,1.6357,1.6357,1.6362,1.6362,1.6362,1.6362,0,1.6461,1.6459,1.6444,1.6437,1.6435,1.6425,1.6419,1.641,1.6407,1.6395,1.6392,1.6387,1.6375,1.6371,1.6357,1.6355,1.6338,1.6339,1.6341,1.634,1.633,1.633,1.63,1.6295,1.6323,1.6322,1.6322,0,1.6448,1.6438,1.6431,1.6425,1.642,1.641,1.6404,1.6403,1.6396,1.6386,1.6379,1.6368,1.6358,1.634,1.6335,1.6324,1.6323,1.6314,1.6322,1.6322,1.6322,1.6322,1.632,1.6311,1.6311,1.6311,1.6311,0,1.6423,1.6423,1.6414,1.6405,1.6397,1.639,1.6382,1.6377,1.6375,1.6367,1.6356,1.6349,1.6335,1.6324,1.6313,1.6308,1.6308,1.6309,1.6305,1.6304,1.6305,1.6303,1.6335,1.6309,1.6309,1.6309,1.6309,1.6309,1.6405,1.6397,1.639,1.638,1.6375,1.6369,1.636,1.6357,1.6348,1.6336,1.6336,1.6324,1.6316,1.6302,1.6297,1.6287,1.6289,1.6285,1.6284,1.6282,1.6281,1.6309,1.6285,1.6285,1.6285,1.6285,1.6285,0,1.6379,1.6375,1.6367,1.6357,1.6349,1.6352,1.6345,1.6338,1.6327,1.632,1.6312,1.6299,1.6288,1.6282,1.6271,1.6264,1.6264,1.6261,1.6261,1.626,1.628,1.6283,1.6262,1.6262,1.6262,1.6262,1.6262,1.6262,1.6365,1.6351,1.635,1.6333,1.633,1.6318,1.6313,1.6307,1.6302,1.6287,1.6279,1.6276,1.6269,1.6258,1.6249,1.6247,1.6242,1.6239,1.6238,1.6256,1.6258,1.6261,1.6263,1.6238,1.6238,1.6218,1.6218,1.6218]},{"header":{"parameterUnit":"m.s-1","parameterCategory":1,"la1":30.2991,"la2":30.254,"lo1":-89.0895,"lo2":-89.0444,"dy":0.0017,"dx":0.0017,"nx":28,"ny":28,"refTime":"2023-10-16T09:00:00:Z","depth":0,"parameterNumber":3,"parameterNumberName":"V-component_of_WINDS"},"data":[0,0,0,0,0,0,0,0,0,0,0,0,0,0,0,0,0,0,0,0,0,0,0,0,0,0,0,0,0,0,0,0,0,0,0,0,0,0,0,0,0,0,0,0,0,0,0,0,0,0,0,0,0,0,0,0,0,0,-6.142,-6.1422,0,-6.1596,-6.1598,-6.1599,-6.1522,-6.1518,-6.1514,-6.151,-6.1685,-6.1693,-6.1702,0,0,0,0,0,0,0,0,0,0,0,0,0,-6.1012,-6.102,-6.1419,-6.1422,-6.1424,-6.1595,-6.1598,-6.16,-6.1523,-6.1518,-6.1513,-6.1508,-6.1682,-6.1692,-6.1702,0,0,0,0,0,0,0,0,0,0,0,0,0,-6.1189,-6.1023,-6.1419,-6.1406,-6.1407,-6.1595,-6.1598,-6.1601,-6.1524,-6.1518,-6.1511,-6.1505,-6.1678,-6.1691,-6.1704,-6.1913,0,0,-6.1743,-6.1749,0,0,0,0,0,0,0,0,-6.1179,-6.1204,-6.1406,-6.1408,-6.1409,-6.153,-6.1518,-6.1705,-6.1526,-6.148,-6.151,-6.1502,-6.1638,-6.1654,-6.1701,-6.1921,-6.1929,-6.1745,-6.1753,-6.1758,-6.1762,0,0,0,0,0,0,0,-6.1167,-6.1196,-6.1489,-6.1409,-6.1411,-6.139,-6.1408,-6.1553,-6.1593,-6.1483,-6.1478,-6.15,-6.1638,-6.1689,-6.1705,-6.1931,-6.1744,-6.1756,-6.1764,-6.1769,-6.2332,-6.2339,0,0,0,0,0,0,-6.1155,-6.1186,-6.1483,-6.1494,-6.1276,-6.1403,-6.1423,-6.1498,-6.1591,-6.1599,-6.1505,-6.1496,-6.167,-6.1689,-6.171,-6.1962,-6.1758,-6.177,-6.1778,-6.2325,-6.2334,-6.2341,0,0,0,0,0,0,-6.1147,-6.1183,-6.1476,-6.1339,-6.1375,-6.1417,-6.1501,-6.1505,-6.1556,-6.1608,-6.1614,-6.1551,-6.1665,-6.1692,-6.1864,-6.1967,-6.1776,-6.1788,-6.2316,-6.2328,-6.2337,-6.2467,0,0,0,0,0,0,-6.1135,-6.118,-6.1261,-6.1341,-6.1382,-6.1628,-6.1508,-6.1513,-6.1579,-6.1568,-6.1652,-6.166,-6.1662,-6.1845,-6.1877,-6.1982,-6.1798,-6.2307,-6.2321,-6.2334,-6.2454,-6.2481,-6.2504,0,0,0,0,0,-6.1121,-6.1289,-6.1265,-6.1302,-6.1485,-6.1635,-6.1658,-6.1659,-6.1588,-6.1669,-6.1702,-6.1657,-6.1951,-6.1863,-6.1898,-6.2009,-6.2301,-6.2317,-6.2333,-6.2442,-6.2476,-6.2504,0,0,0,0,0,0,-6.1218,-6.1299,-6.1274,-6.1473,-6.1548,-6.1621,-6.1724,-6.1694,-6.1789,-6.1775,-6.177,-6.179,-6.1968,-6.2005,-6.1906,-6.2216,-6.2115,-6.2139,-6.2186,-6.2218,-6.2242,-6.223,-6.1809,0,0,0,0,0,-6.1263,-6.1379,-6.1443,-6.1613,-6.1652,-6.1682,-6.1747,-6.1741,-6.1818,-6.1848,-6.1894,-6.1969,-6.2077,-6.2149,-6.2252,-6.2458,-6.2476,-6.2552,-6.2577,-6.2597,-6.2618,-6.2731,-6.2765,-6.2394,-6.2394,-6.2394,0,0,-6.1355,-6.1414,-6.1488,-6.1634,-6.1691,-6.181,-6.1708,-6.1839,-6.1927,-6.1867,-6.2033,-6.207,-6.2152,-6.2342,-6.2428,-6.2379,-6.2724,-6.2618,-6.2634,-6.2644,-6.2751,-6.2786,-6.2817,-6.2405,-6.2403,-6.2402,0,0,-6.1586,-6.1643,-6.1791,-6.1851,-6.1939,-6.1958,-6.1994,-6.2073,-6.2095,-6.2262,-6.222,-6.2323,-6.2511,-6.2572,-6.2628,-6.2883,-6.2845,-6.2916,-6.3048,-6.3158,-6.3187,-6.3213,-6.3305,-6.3338,-6.2937,-6.2937,-6.2938,0,-6.1691,-6.1871,-6.187,-6.2005,-6.207,-6.2024,-6.2173,-6.223,-6.2347,-6.2393,-6.2336,-6.2572,-6.2624,-6.2828,-6.2891,-6.2937,-6.2977,-6.2907,-6.3183,-6.3209,-6.3234,-6.3321,-6.3355,-6.2945,-6.2945,-6.2944,-6.2943,0,-6.1995,-6.212,-6.2229,-6.2346,-6.2423,-6.2564,-6.2584,-6.2662,-6.265,-6.2674,-6.2844,-6.2906,-6.3021,-6.3068,-6.3057,-6.3272,-6.3238,-6.3183,-6.3081,-6.3277,-6.3359,-6.3393,-6.2957,-6.2954,-6.2952,-6.295,0,0,-6.2291,-6.2407,-6.2447,-6.25,-6.2594,-6.2691,-6.2829,-6.2944,-6.3011,-6.3093,-6.3209,-6.337,-6.332,-6.3383,-6.3378,-6.3474,-6.3673,-6.3407,-6.3408,-6.3455,-6.3914,-6.3956,-6.3995,-6.3648,-6.3655,-6.366,-6.3907,0,-6.253,-6.2776,-6.278,-6.3005,-6.3121,-6.3078,-6.3199,-6.3269,-6.3296,-6.3397,-6.3425,-6.354,-6.3464,-6.3503,-6.3596,-6.3629,-6.3765,-6.3611,-6.3756,-6.3761,-6.3738,-6.4038,-6.4082,-6.4313,-6.3939,-6.3945,-6.3949,0,-6.2842,-6.2937,-6.3174,-6.3253,-6.3301,-6.341,-6.3516,-6.3613,-6.3692,-6.3705,-6.3776,-6.3757,-6.3897,-6.3791,-6.3984,-6.3879,-6.3938,-6.3964,-6.3973,-6.3987,-6.3867,-6.4061,-6.4386,-6.4422,-6.3999,-6.3995,-6.3991,0,-6.3036,-6.3222,-6.3389,-6.3435,-6.3531,-6.3608,-6.3651,-6.3724,-6.3793,-6.3885,-6.3929,-6.4035,-6.4094,-6.4176,-6.4185,-6.4107,-6.438,-6.4274,-6.4394,-6.4394,-6.4454,-6.445,-6.4795,-6.4491,-6.4491,-6.449,-6.4489,0,-6.3303,-6.345,-6.3477,-6.358,-6.3743,-6.3745,-6.3906,-6.3943,-6.4008,-6.4116,-6.4084,-6.4186,-6.4192,-6.4296,-6.4304,-6.4463,-6.4489,-6.4503,-6.4504,-6.4507,-6.4505,-6.4546,-6.4531,-6.4499,-6.4497,-6.4495,-6.4494,0,-6.3547,-6.3572,-6.3751,-6.3827,-6.385,-6.3967,-6.4032,-6.4129,-6.4153,-6.429,-6.4322,-6.4359,-6.448,-6.4498,-6.4638,-6.4644,-6.4835,-6.4819,-6.481,-6.4808,-6.4927,-6.4916,-6.5311,-6.5363,-6.5024,-6.5027,-6.503,0,-6.3717,-6.3829,-6.3918,-6.399,-6.4038,-6.4152,-6.4223,-6.4229,-6.4304,-6.4402,-6.4488,-6.4606,-6.4701,-6.4896,-6.4934,-6.5042,-6.5028,-6.5159,-6.5044,-6.5044,-6.5031,-6.5025,-6.5037,-6.5181,-6.5185,-6.5188,-6.5191,0,-6.4015,-6.4022,-6.4126,-6.4235,-6.4321,-6.4407,-6.4487,-6.4547,-6.4563,-6.4649,-6.4773,-6.4847,-6.4992,-6.511,-6.5217,-6.5259,-6.5229,-6.5227,-6.526,-6.5265,-6.5256,-6.5264,-6.4871,-6.5218,-6.5215,-6.5213,-6.5211,-6.521,-6.4228,-6.4326,-6.4405,-6.4522,-6.4584,-6.4661,-6.4756,-6.4793,-6.4897,-6.5017,-6.5014,-6.5151,-6.5226,-6.5367,-6.5417,-6.5524,-6.5481,-6.5529,-6.5542,-6.5554,-6.5567,-6.5238,-6.5543,-6.5542,-6.5541,-6.5541,-6.554,0,-6.4525,-6.4574,-6.4682,-6.4797,-6.4889,-6.4853,-6.4941,-6.502,-6.5142,-6.5216,-6.5311,-6.5454,-6.5568,-6.5616,-6.5728,-6.5804,-6.5792,-6.5833,-6.5828,-6.5838,-6.5598,-6.5558,-6.584,-6.584,-6.584,-6.584,-6.584,-6.584,-6.4691,-6.4856,-6.4872,-6.5067,-6.5114,-6.525,-6.5303,-6.5374,-6.5433,-6.5595,-6.569,-6.5721,-6.5785,-6.5902,-6.6004,-6.6015,-6.6058,-6.6106,-6.6111,-6.5885,-6.5855,-6.5826,-6.5789,-6.6115,-6.6115,-6.6342,-6.6344,-6.6346]}]]